ACA1H CYXU-KBOS

Flight info

Callsign ACA1H
Flight time 0h 51m
Altitude 37000
Route DCT WOZEE DCT AEVON DCT HANKK DCT PONCT JFUND2
Aircraft E195/M-SDE3GILORVW/S

Departure

Time 2026-05-07 01:48
Airport London International Airport (CYXU)

Arrival

Time 2026-05-07 02:39
Airport Boston Logan International Airport (KBOS)
Time Latitude Longitude Altitude Speed Heading
2026-05-07 01:32 43.03552 -81.16262 911 ft 0 kts 349°
2026-05-07 01:42 43.03556 -81.16264 911 ft 1 kts 348°
2026-05-07 01:42 43.03578 -81.16269 911 ft 5 kts 349°
2026-05-07 01:42 43.03624 -81.16277 910 ft 7 kts
2026-05-07 01:42 43.03695 -81.16276 910 ft 12 kts 353°
2026-05-07 01:43 43.03792 -81.16317 908 ft 12 kts 335°
2026-05-07 01:43 43.03821 -81.16293 908 ft 4 kts 98°
2026-05-07 01:43 43.03820 -81.16270 909 ft 1 kts 86°
2026-05-07 01:43 43.03820 -81.16268 909 ft 0 kts 81°
2026-05-07 01:47 43.03820 -81.16266 909 ft 3 kts 81°
2026-05-07 01:47 43.03872 -81.15882 911 ft 78 kts 77°
2026-05-07 01:47 43.04023 -81.14798 915 ft 154 kts 79°
2026-05-07 01:48 43.04263 -81.13178 1360 ft 186 kts 78°
2026-05-07 01:48 43.04564 -81.11420 2157 ft 199 kts 71°
2026-05-07 01:48 43.04883 -81.09476 3006 ft 222 kts 81°
2026-05-07 01:48 43.05101 -81.07491 4369 ft 219 kts 78°
2026-05-07 01:49 43.05331 -81.05423 5432 ft 228 kts 79°
2026-05-07 01:49 43.05576 -81.03144 5904 ft 269 kts 79°
2026-05-07 01:49 43.05886 -81.00404 6138 ft 316 kts 79°
2026-05-07 01:49 43.06200 -80.97638 8409 ft 280 kts 79°
2026-05-07 01:50 43.06487 -80.95161 9947 ft 269 kts 79°
2026-05-07 01:50 43.06793 -80.92690 10938 ft 277 kts 79°
2026-05-07 01:50 43.07041 -80.89831 10940 ft 325 kts 92°
2026-05-07 01:50 43.06760 -80.86591 11066 ft 365 kts 96°
2026-05-07 01:51 43.06624 -80.82946 11105 ft 405 kts 92°
2026-05-07 01:51 43.06514 -80.78990 11772 ft 423 kts 93°
2026-05-07 01:51 43.06413 -80.74936 12488 ft 445 kts 93°
2026-05-07 01:51 43.06293 -80.70782 13448 ft 421 kts 94°
2026-05-07 01:52 43.06163 -80.66763 11553 ft 443 kts 94°
2026-05-07 01:52 43.06039 -80.62662 11173 ft 423 kts 92°
2026-05-07 01:52 43.05921 -80.58718 10927 ft 400 kts 92°
2026-05-07 01:52 43.05820 -80.55022 10929 ft 375 kts 92°
2026-05-07 01:53 43.05715 -80.51582 10916 ft 352 kts 92°
2026-05-07 01:53 43.05616 -80.48372 10918 ft 330 kts 92°
2026-05-07 01:53 43.05521 -80.45340 11468 ft 317 kts 93°
2026-05-07 01:53 43.05428 -80.42298 12342 ft 334 kts 93°
2026-05-07 01:54 43.05322 -80.39072 13337 ft 344 kts 94°
2026-05-07 01:54 43.05185 -80.35792 14287 ft 354 kts 96°
2026-05-07 01:54 43.05034 -80.32460 15355 ft 358 kts 97°
2026-05-07 01:54 43.04874 -80.29050 16325 ft 365 kts 97°
2026-05-07 01:55 43.04716 -80.25586 17197 ft 373 kts 97°
2026-05-07 01:55 43.04552 -80.22017 18135 ft 378 kts 97°
2026-05-07 01:55 43.04390 -80.18440 19033 ft 383 kts 98°
2026-05-07 01:55 43.04213 -80.14787 19848 ft 391 kts 98°
2026-05-07 01:56 43.04037 -80.11076 20729 ft 394 kts 97°
2026-05-07 01:56 43.03861 -80.07283 21446 ft 403 kts 97°
2026-05-07 01:56 43.03684 -80.03479 22317 ft 405 kts 97°
2026-05-07 01:56 43.03494 -79.99572 23039 ft 412 kts 97°
2026-05-07 01:57 43.03310 -79.95654 23784 ft 417 kts 97°
2026-05-07 01:57 43.03118 -79.91676 24403 ft 426 kts 97°
2026-05-07 01:57 43.02916 -79.87640 24995 ft 432 kts 97°
2026-05-07 01:57 43.02722 -79.83508 25614 ft 439 kts 98°
2026-05-07 01:58 43.02514 -79.79346 26176 ft 446 kts 98°
2026-05-07 01:58 43.02307 -79.75096 26705 ft 454 kts 98°
2026-05-07 01:58 43.02084 -79.70779 27262 ft 461 kts 98°
2026-05-07 01:58 43.01865 -79.66365 27834 ft 466 kts 98°
2026-05-07 01:59 43.01629 -79.61907 28184 ft 478 kts 97°
2026-05-07 01:59 43.01413 -79.57433 28800 ft 481 kts 97°
2026-05-07 01:59 43.01168 -79.52768 28777 ft 503 kts 98°
2026-05-07 01:59 43.00907 -79.47922 28833 ft 521 kts 97°
2026-05-07 02:00 43.00641 -79.42944 28878 ft 533 kts 97°
2026-05-07 02:00 43.00378 -79.37826 29004 ft 541 kts 97°
2026-05-07 02:00 43.00105 -79.32669 29192 ft 544 kts 98°
2026-05-07 02:00 42.99833 -79.27540 29386 ft 545 kts 99°
2026-05-07 02:01 42.99541 -79.22315 29488 ft 548 kts 98°
2026-05-07 02:01 42.99268 -79.17207 29621 ft 548 kts 98°
2026-05-07 02:01 42.98970 -79.11925 29665 ft 551 kts 99°
2026-05-07 02:02 42.98394 -79.01494 29832 ft 552 kts 98°
2026-05-07 02:02 42.97797 -78.91008 29923 ft 558 kts 99°
2026-05-07 02:02 42.97489 -78.85746 30031 ft 557 kts 98°
2026-05-07 02:03 42.97182 -78.80479 30079 ft 559 kts 98°
2026-05-07 02:03 42.96560 -78.69837 30142 ft 561 kts 99°
2026-05-07 02:03 42.96254 -78.64519 30256 ft 559 kts 99°
2026-05-07 02:04 42.95925 -78.59212 30243 ft 562 kts 98°
2026-05-07 02:04 42.95284 -78.48595 30298 ft 564 kts 99°
2026-05-07 02:05 42.94630 -78.37914 30380 ft 565 kts 99°
2026-05-07 02:05 42.90953 -77.81216 30593 ft 566 kts 99°
2026-05-07 02:05 42.89824 -77.42926 30271 ft 575 kts 85°
2026-05-07 02:06 42.89730 -77.20903 30624 ft 571 kts 96°
2026-05-07 02:06 42.89185 -77.05340 30692 ft 573 kts 96°
2026-05-07 02:07 42.88869 -76.94840 30713 ft 574 kts 96°
2026-05-07 02:07 42.87630 -76.57919 31056 ft 574 kts 97°
2026-05-07 02:07 42.86467 -76.25123 31152 ft 573 kts 97°
2026-05-07 02:08 42.85454 -75.99329 31980 ft 543 kts 97°
2026-05-07 02:09 42.85047 -75.89085 31978 ft 538 kts 97°
2026-05-07 02:09 42.84484 -75.75453 32107 ft 539 kts 97°
2026-05-07 02:09 42.80857 -74.96227 32218 ft 544 kts 98°
2026-05-07 02:10 42.76070 -74.11217 32325 ft 551 kts 98°
2026-05-07 02:10 42.75329 -73.89862 31973 ft 559 kts 96°
2026-05-07 02:10 42.74936 -73.84668 31327 ft 549 kts 100°
2026-05-07 02:10 42.74628 -73.79672 31040 ft 529 kts 95°
2026-05-07 02:11 42.74616 -73.74728 30318 ft 505 kts 92°
2026-05-07 02:11 42.74624 -73.70016 29728 ft 495 kts 94°
2026-05-07 02:11 42.74591 -73.65359 29311 ft 495 kts 93°
2026-05-07 02:11 42.74544 -73.60658 29041 ft 513 kts 94°
2026-05-07 02:12 42.74513 -73.55756 28345 ft 518 kts 94°
2026-05-07 02:12 42.74466 -73.50906 27733 ft 514 kts 93°
2026-05-07 02:12 42.74433 -73.46114 27105 ft 508 kts 94°
2026-05-07 02:12 42.74389 -73.41305 26466 ft 502 kts 94°
2026-05-07 02:13 42.74344 -73.36616 25838 ft 497 kts 94°
2026-05-07 02:13 42.74300 -73.31991 25213 ft 490 kts 94°
2026-05-07 02:13 42.74253 -73.27384 24552 ft 485 kts 94°
2026-05-07 02:13 42.74205 -73.22842 23929 ft 478 kts 94°
2026-05-07 02:14 42.74159 -73.18391 23321 ft 471 kts 95°
2026-05-07 02:14 42.74099 -73.13944 22669 ft 466 kts 95°
2026-05-07 02:14 42.73910 -73.09652 22013 ft 456 kts 103°
2026-05-07 02:14 42.73335 -73.05450 21378 ft 444 kts 112°
2026-05-07 02:15 42.72054 -73.01830 20677 ft 418 kts 136°
2026-05-07 02:15 42.69967 -72.99326 20074 ft 383 kts 161°
2026-05-07 02:15 42.67586 -72.98301 19476 ft 340 kts 185°
2026-05-07 02:15 42.65425 -72.98573 18038 ft 299 kts 211°
2026-05-07 02:16 42.64070 -73.00212 17928 ft 251 kts 243°
2026-05-07 02:16 42.63153 -73.02240 18160 ft 265 kts 229°
2026-05-07 02:16 42.61509 -73.03526 17589 ft 286 kts 200°
2026-05-07 02:16 42.59483 -73.03442 16922 ft 313 kts 171°
2026-05-07 02:17 42.57572 -73.01747 16919 ft 347 kts 142°
2026-05-07 02:17 42.56284 -72.98804 16809 ft 374 kts 114°
2026-05-07 02:17 42.56031 -72.95289 16833 ft 386 kts 86°
2026-05-07 02:17 42.56859 -72.91823 16837 ft 388 kts 62°
2026-05-07 02:18 42.58017 -72.88545 16817 ft 389 kts 74°
2026-05-07 02:18 42.58506 -72.84962 16840 ft 386 kts 87°
2026-05-07 02:18 42.58689 -72.81353 16818 ft 385 kts 92°
2026-05-07 02:18 42.58753 -72.77731 16816 ft 382 kts 93°
2026-05-07 02:19 42.58770 -72.74126 16818 ft 382 kts 94°
2026-05-07 02:19 42.58793 -72.70531 16802 ft 377 kts 94°
2026-05-07 02:19 42.58795 -72.67029 16036 ft 374 kts 94°
2026-05-07 02:19 42.58794 -72.63518 14283 ft 376 kts 94°
2026-05-07 02:20 42.58800 -72.60100 12975 ft 363 kts 93°
2026-05-07 02:20 42.58806 -72.56796 11681 ft 352 kts 93°
2026-05-07 02:20 42.58810 -72.53576 10373 ft 343 kts 93°
2026-05-07 02:20 42.58815 -72.50453 9100 ft 331 kts 92°
2026-05-07 02:21 42.58805 -72.47382 8346 ft 321 kts 92°
2026-05-07 02:21 42.58814 -72.44396 8351 ft 320 kts 92°
2026-05-07 02:21 42.58814 -72.41396 8332 ft 320 kts 92°
2026-05-07 02:21 42.58816 -72.38390 8733 ft 312 kts 92°
2026-05-07 02:22 42.58817 -72.35455 8229 ft 322 kts 92°
2026-05-07 02:22 42.58805 -72.32373 8371 ft 325 kts 93°
2026-05-07 02:22 42.58804 -72.29339 8288 ft 320 kts 92°
2026-05-07 02:22 42.58803 -72.26450 8311 ft 314 kts 93°
2026-05-07 02:23 42.58799 -72.23489 8316 ft 313 kts 93°
2026-05-07 02:23 42.58791 -72.20564 8320 ft 313 kts 93°
2026-05-07 02:23 42.58786 -72.17601 8331 ft 313 kts 93°
2026-05-07 02:23 42.58773 -72.14665 8315 ft 312 kts 93°
2026-05-07 02:24 42.58767 -72.11729 8274 ft 308 kts 93°
2026-05-07 02:24 42.58762 -72.09786 7970 ft 308 kts 92°
2026-05-07 02:24 42.58745 -72.05943 7365 ft 304 kts 92°
2026-05-07 02:24 42.58723 -71.98107 6285 ft 298 kts 92°
2026-05-07 02:25 42.58709 -71.95325 6537 ft 292 kts 93°
2026-05-07 02:25 42.58701 -71.92611 6456 ft 289 kts 92°
2026-05-07 02:25 42.58686 -71.89928 6513 ft 291 kts 93°
2026-05-07 02:25 42.58675 -71.87193 6498 ft 289 kts 92°
2026-05-07 02:26 42.58655 -71.84490 6486 ft 290 kts 92°
2026-05-07 02:26 42.58593 -71.81757 6498 ft 289 kts 100°
2026-05-07 02:26 42.58184 -71.79094 6512 ft 287 kts 105°
2026-05-07 02:26 42.57764 -71.76445 6499 ft 287 kts 105°
2026-05-07 02:27 42.56063 -71.65918 6524 ft 287 kts 105°
2026-05-07 02:27 42.54792 -71.57882 6492 ft 286 kts 111°
2026-05-07 02:27 42.54221 -71.55315 6504 ft 286 kts 109°
2026-05-07 02:27 42.49682 -71.33476 6603 ft 288 kts 109°
2026-05-07 02:28 42.49184 -71.30853 6492 ft 286 kts 109°
2026-05-07 02:28 42.48329 -71.26556 6678 ft 271 kts 109°
2026-05-07 02:28 42.46854 -71.19181 6124 ft 258 kts 110°
2026-05-07 02:28 42.46395 -71.16854 5590 ft 262 kts 107°
2026-05-07 02:29 42.46620 -71.12302 5188 ft 251 kts 66°
2026-05-07 02:29 42.47651 -71.10482 4835 ft 245 kts 45°
2026-05-07 02:29 42.49600 -71.06691 4792 ft 231 kts 58°
2026-05-07 02:29 42.50710 -71.05349 4831 ft 206 kts 17°
2026-05-07 02:30 42.52064 -71.04789 4814 ft 203 kts 11°
2026-05-07 02:30 42.53404 -71.04191 4801 ft 204 kts 12°
2026-05-07 02:30 42.54749 -71.03554 4804 ft 205 kts 13°
2026-05-07 02:30 42.56102 -71.02892 4792 ft 204 kts 13°
2026-05-07 02:31 42.57446 -71.02232 4793 ft 205 kts 13°
2026-05-07 02:31 42.59640 -71.01069 4601 ft 203 kts 25°
2026-05-07 02:31 42.60540 -70.99596 4110 ft 207 kts 69°
2026-05-07 02:31 42.60561 -70.97723 3815 ft 199 kts 115°
2026-05-07 02:32 42.59729 -70.96361 3785 ft 183 kts 157°
2026-05-07 02:32 42.58558 -70.95995 3844 ft 172 kts 185°
2026-05-07 02:32 42.57340 -70.95770 3751 ft 180 kts 174°
2026-05-07 02:32 42.56193 -70.95122 3819 ft 181 kts 163°
2026-05-07 02:33 42.55115 -70.94313 3121 ft 183 kts 159°
2026-05-07 02:33 42.54073 -70.93410 2805 ft 172 kts 155°
2026-05-07 02:33 42.53121 -70.92725 2742 ft 150 kts 174°
2026-05-07 02:33 42.52122 -70.92895 1948 ft 143 kts 208°
2026-05-07 02:34 42.51284 -70.93337 1743 ft 118 kts 204°
2026-05-07 02:34 42.50598 -70.93659 1507 ft 98 kts 205°
2026-05-07 02:34 42.49938 -70.93928 1484 ft 99 kts 201°
2026-05-07 02:34 42.49195 -70.94199 1645 ft 116 kts 208°
2026-05-07 02:35 42.48508 -70.94626 1889 ft 104 kts 210°
2026-05-07 02:35 42.47761 -70.95023 1111 ft 125 kts 206°
2026-05-07 02:35 42.47042 -70.95386 916 ft 105 kts 204°
2026-05-07 02:35 42.46296 -70.95759 1196 ft 109 kts 204°
2026-05-07 02:36 42.45600 -70.96081 1551 ft 119 kts 206°
2026-05-07 02:36 42.44817 -70.96480 1512 ft 122 kts 206°
2026-05-07 02:36 42.44018 -70.96858 1535 ft 124 kts 206°
2026-05-07 02:36 42.43225 -70.97250 1562 ft 121 kts 205°
2026-05-07 02:37 42.42412 -70.97643 1443 ft 125 kts 205°
2026-05-07 02:37 42.41592 -70.98041 1371 ft 124 kts 204°
2026-05-07 02:37 42.40778 -70.98425 1268 ft 122 kts 200°
2026-05-07 02:37 42.39986 -70.98741 755 ft 115 kts 205°
2026-05-07 02:38 42.39297 -70.99120 490 ft 102 kts 203°
2026-05-07 02:38 42.38629 -70.99469 297 ft 107 kts 201°
2026-05-07 02:38 42.37937 -70.99803 106 ft 111 kts 200°
2026-05-07 02:38 42.37252 -71.00134 42 ft 103 kts 200°
2026-05-07 02:39 42.36588 -71.00457 13 ft 93 kts 200°
2026-05-07 02:39 42.36128 -71.00680 14 ft 49 kts 199°